W5MAI Weather Reports


Display with metric or nautical units.
time (UTC)temp
F
wind
direction
speed
MPH
gust
MPH
rain 1hr
in
rain 24hr
in
rain mn
in
humidity
%
barometer
mb
20260507073328 61 31 0.0 2.0 0.00 0.00 0.00 84 1016.8
20260507072350 61 25 0.0 3.0 0.00 0.00 0.00 84 1017.1
20260507071419 61 24 1.0 3.0 0.00 0.00 0.00 84 1016.9
20260507070349 61 344 0.0 1.0 0.00 0.00 0.00 84 1016.7
20260507065328 61 37 0.0 2.0 0.00 0.00 0.00 84 1016.7
20260507064341 62 45 1.0 4.0 0.00 0.00 0.00 83 1016.9
20260507063324 62 65 1.0 4.0 0.00 0.00 0.00 83 1016.9
20260507062329 62 46 0.0 4.0 0.00 0.00 0.00 83 1016.7
20260507061342 62 82 0.0 3.0 0.00 0.00 0.00 83 1016.6
20260507060326 62 52 1.0 4.0 0.00 0.00 0.00 83 1016.6
20260507055329 62 22 1.0 6.0 0.00 0.00 0.00 83 1016.4
20260507054322 62 39 0.0 6.0 0.00 0.00 0.00 84 1016.2
20260507053327 62 355 1.0 5.0 0.00 0.00 0.00 84 1016.3
20260507052342 62 28 0.0 4.0 0.00 0.00 0.00 84 1016.4
20260507051325 62 47 1.0 2.0 0.00 0.00 0.00 84 1016.1
20260507050327 62 26 1.0 3.0 0.00 0.00 0.00 84 1016.3
20260507042346 63 360 1.0 3.0 0.00 0.00 0.00 83 1016.4
20260507041405 63 11 0.0 3.0 0.00 0.00 0.00 83 1016.3
20260507040335 63 351 0.0 3.0 0.00 0.00 0.00 83 1016.0
20260507035400 63 30 0.0 4.0 0.00 0.00 0.00 83 1015.8
20260507034324 63 346 0.0 4.0 0.00 0.00 0.00 83 1015.9
20260507025335 63 53 1.0 3.0 0.00 0.00 0.00 84 1015.9
20260507024357 63 48 1.0 3.0 0.00 0.00 0.00 84 1015.6
20260507023326 63 5 0.0 3.0 0.00 0.00 0.00 84 1015.5
20260507022402 63 19 0.0 3.0 0.00 0.00 0.00 84 1015.5
20260507021422 63 330 0.0 5.0 0.00 0.00 0.00 84 1015.3
20260507020338 63 355 0.0 3.0 0.00 0.00 0.00 83 1014.9
20260507015337 63 32 0.0 4.0 0.00 0.00 0.00 83 1015.0
20260507014352 63 42 1.0 5.0 0.00 0.00 0.00 82 1015.0
20260507013420 63 312 1.0 4.0 0.00 0.00 0.00 83 1014.8
20260507005349 64 312 1.0 4.0 0.00 0.00 0.00 81 1013.9
20260507004411 65 13 1.0 4.0 0.00 0.00 0.00 81 1014.2
20260507003342 65 331 1.0 3.0 0.00 0.00 0.00 80 1014.2
20260507002351 65 305 1.0 6.0 0.00 0.00 0.00 80 1013.6
20260507001322 65 17 0.0 6.0 0.00 0.00 0.00 80 1013.7
20260507000358 66 355 1.0 5.0 0.00 0.00 0.00 79 1013.7
20260506235417 67 338 1.0 6.0 0.00 0.00 0.00 79 1013.7
20260506234340 67 29 0.0 6.0 0.00 0.00 0.00 79 1013.5
20260506233417 67 28 1.0 4.0 0.00 0.00 0.00 78 1013.0
20260506232328 68 33 1.0 6.0 0.00 0.00 0.00 77 1013.0
20260506231403 68 29 2.0 8.0 0.00 0.00 0.00 77 1013.0
20260506230422 68 22 1.0 6.0 0.00 0.00 0.00 77 1012.8
20260506224340 70 27 1.0 8.0 0.00 0.00 0.00 75 1012.9
20260506223342 71 30 2.0 9.0 0.00 0.00 0.00 74 1012.8
20260506222412 72 346 2.0 9.0 0.00 0.00 0.00 73 1012.6
20260506221325 73 43 2.0 9.0 0.00 0.00 0.00 73 1012.5
20260506220348 73 330 2.0 9.0 0.00 0.00 0.00 73 1012.3
20260506215418 74 332 2.0 5.0 0.00 0.00 0.00 74 1012.3
20260506214323 75 340 2.0 5.0 0.00 0.00 0.00 72 1012.3
20260506213359 76 96 2.0 6.0 0.00 0.00 0.00 71 1012.2
20260506212422 76 22 2.0 8.0 0.00 0.00 0.00 72 1012.1
20260506205350 77 355 2.0 5.0 0.00 0.00 0.00 73 1012.2
20260506204409 76 5 1.0 6.0 0.00 0.00 0.00 76 1012.1
20260506203337 76 58 2.0 6.0 0.00 0.00 0.00 75 1012.1
20260506202350 76 77 2.0 7.0 0.00 0.00 0.00 75 1012.2
20260506201420 78 5 2.0 5.0 0.00 0.00 0.00 73 1012.0
20260506200333 81 11 3.0 11.0 0.00 0.00 0.00 72 1012.1
20260506195356 82 51 1.0 8.0 0.00 0.00 0.00 74 1012.0
20260506194418 82 62 0.0 4.0 0.00 0.00 0.00 73 1011.9
20260506190354 82 67 4.0 9.0 0.00 0.00 0.00 73 1011.9
20260506185323 83 73 0.0 1.0 0.00 0.00 0.00 73 1012.1
20260506181400 82 43 0.0 3.0 0.00 0.00 0.00 76 1012.5
20260506180421 81 103 2.0 6.0 0.00 0.00 0.00 74 1012.5
20260506175342 79 63 1.0 8.0 0.00 0.00 0.00 78 1012.6
20260506174400 78 93 4.0 10.0 0.00 0.00 0.00 79 1012.6
20260506173333 77 83 3.0 9.0 0.00 0.00 0.00 80 1012.7
20260506172358 75 5 1.0 3.0 0.00 0.00 0.00 81 1012.9
20260506171325 75 24 0.0 5.0 0.00 0.00 0.00 81 1013.2
20260506170353 75 69 1.0 3.0 0.00 0.00 0.00 80 1013.1
20260506165415 77 56 2.0 7.0 0.00 0.00 0.00 80 1013.1
20260506163332 78 74 2.0 9.0 0.00 0.00 0.00 83 1013.0
20260506161329 78 60 2.0 6.0 0.00 0.00 0.00 83 1012.9
20260506160351 77 78 4.0 10.0 0.00 0.00 0.00 84 1012.8
20260506155407 78 64 2.0 5.0 0.00 0.00 0.00 85 1012.9
20260506154326 77 88 0.0 2.0 0.00 0.00 0.00 85 1012.9
20260506151402 76 71 3.0 5.0 0.00 0.00 0.00 87 1012.1
20260506150324 75 186 0.0 2.0 0.00 0.00 0.00 88 1011.9
20260506145358 75 186 1.0 3.0 0.00 0.00 0.00 89 1011.9
20260506144331 75 186 0.0 1.0 0.00 0.00 0.00 89 1011.9
20260506142323 75 186 0.0 0.0 0.00 0.00 0.00 89 1012.1
20260506141359 75 186 0.0 3.0 0.00 0.00 0.00 90 1012.0
20260506140331 75 186 1.0 3.0 0.00 0.00 0.00 90 1011.6
20260506134328 75 156 2.0 6.0 0.00 0.00 0.00 90 1011.0
20260506133351 75 155 2.0 4.0 0.00 0.00 0.00 90 1010.7
20260506132413 75 136 3.0 6.0 0.00 0.00 0.00 90 1010.6
20260506131328 75 88 2.0 6.0 0.00 0.00 0.00 90 1010.6
20260506130350 75 101 1.0 5.0 0.00 0.00 0.00 90 1010.4
20260506125324 74 171 3.0 4.0 0.00 0.00 0.00 90 1010.2
20260506124356 74 162 2.0 6.0 0.00 0.00 0.00 90 1010.4
20260506123420 74 157 2.0 5.0 0.00 0.00 0.00 90 1010.3
20260506122343 74 161 1.0 5.0 0.00 0.00 0.00 90 1010.4
20260506121400 74 161 1.0 2.0 0.00 0.00 0.00 90 1010.5
20260506120330 74 161 0.0 0.0 0.00 0.00 0.00 90 1010.4
20260506115406 74 161 0.0 1.0 0.00 0.00 0.00 90 1010.4
20260506114325 74 161 0.0 0.0 0.00 0.00 0.00 90 1010.3
20260506113358 74 161 0.0 0.0 0.00 0.00 0.00 90 1010.2
20260506112414 74 161 0.0 1.0 0.00 0.00 0.00 89 1010.2
20260506111421 74 161 0.0 2.0 0.00 0.00 0.00 89 1010.1
20260506105339 74 131 1.0 3.0 0.00 0.00 0.00 89 1010.1
20260506104344 74 157 1.0 5.0 0.00 0.00 0.00 89 1010.0
20260506103357 74 194 0.0 5.0 0.00 0.00 0.00 90 1009.8
20260506102417 74 192 1.0 5.0 0.00 0.00 0.00 90 1009.9
20260506100325 74 147 1.0 5.0 0.00 0.00 0.00 90 1010.0
20260506093348 75 186 1.0 5.0 0.00 0.00 0.00 88 1009.8
20260506092417 75 199 2.0 7.0 0.00 0.00 0.00 88 1009.9
20260506091335 75 162 2.0 10.0 0.00 0.00 0.00 88 1009.7
20260506090419 75 196 5.0 11.0 0.00 0.00 0.00 88 1009.7
20260506083408 75 168 4.0 10.0 0.00 0.00 0.00 88 1009.6
20260506082323 75 203 5.0 9.0 0.00 0.00 0.00 88 1009.6
20260506081426 75 146 4.0 11.0 0.00 0.00 0.00 89 1009.8
20260506080351 75 187 4.0 8.0 0.00 0.00 0.00 89 1009.9
20260506073416 75 155 4.0 9.0 0.00 0.00 0.00 89 1010.0